Regional Weather Roundup
Issued by NWS

Home | Current Version | Previous Version | Text Only | Print | Product List | Glossary Off
Versions: 1 2 3 4 5 6 7 8 9 10 11 12 13 14 15 16 17 18 19 20 21 22 23 24 25 26 27 28 29 30 31 32 33 34 35 36 37 38 39 40 41 42 43 44 45 46 47 48 49 50

000
ASUS43 KMKX 301821
RWRWI

WISCONSIN REGIONAL WEATHER ROUNDUP
NATIONAL WEATHER SERVICE MILWAUKEE/SULLIVAN WI
100 PM CDT THU JUL 30 2015

NOTE: "FAIR" INDICATES FEW OR NO CLOUDS BELOW 12,000 FEET WITH NO
SIGNIFICANT WEATHER AND/OR OBSTRUCTIONS TO VISIBILITY.

WIZ001-002-006>008-014>016-023>028-301900-
NORTHWEST WISCONSIN

CITY           SKY/WX    TMP DP  RH WIND       PRES   REMARKS
SUPERIOR ARPT  MOSUNNY   80  59  47 NW14G24   29.94S HX  81
6HR MIN TEMP:  63; 6HR MAX TEMP:  80;

ASHLAND        MOSUNNY   81  59  47 W12G25    29.94F HX  81
6HR MIN TEMP:  64; 6HR MAX TEMP:  81;

HAYWARD        PTSUNNY   79  55  43 W8G18     29.99S
6HR MIN TEMP:  61; 6HR MAX TEMP:  80;

SIREN          MOSUNNY   81  56  42 W15G23    30.01S HX  81
6HR MIN TEMP:  64; 6HR MAX TEMP:  81;

CUMBERLAND     MOSUNNY   77  55  47 W13G21    30.02S
RICE LAKE      MOSUNNY   78  59  52 W10G20    30.03S
6HR MIN TEMP:  62; 6HR MAX TEMP:  78;

CHETEK         MOSUNNY   80  60  49 W10G18    30.02S HX  81
6HR MIN TEMP:  65; 6HR MAX TEMP:  80;

LADYSMITH      MOSUNNY   80  56  44 W16       30.02S HX  80
6HR MIN TEMP:  63; 6HR MAX TEMP:  80;

EAU CLAIRE     MOSUNNY   83  58  42 W15G26    30.02S HX  83
6HR MIN TEMP:  63; 6HR MAX TEMP:  83;

MENOMONIE      SUNNY     83  56  39 W17       30.03S HX  82
6HR MIN TEMP:  65; 6HR MAX TEMP:  83;

NEW RICHMOND   MOSUNNY   80  58  46 W16       30.04S HX  80
6HR MIN TEMP:  64; 6HR MAX TEMP:  81;

OSCEOLA        MOSUNNY   80  57  45 W14G21    30.06S HX  80
6HR MIN TEMP:  65; 6HR MAX TEMP:  80;

$$

WIZ003>005-009-010-017-018-301900-
NORTH CENTRAL WISCONSIN

CITY           SKY/WX    TMP DP  RH WIND       PRES   REMARKS
MANITOWISH WTR MOSUNNY   77  55  45 NW15G22   29.97S
6HR MIN TEMP:  63; 6HR MAX TEMP:  77;

ARBOR VITAE    MOSUNNY   77  54  44 NW15G24   29.98S
6HR MIN TEMP:  62; 6HR MAX TEMP:  77;

WOODRUFF       MOSUNNY   77  54  44 NW15G24   29.98S
6HR MIN TEMP:  62; 6HR MAX TEMP:  77;

RHINELANDER    MOSUNNY   79  52  38 NW8       29.98S
6HR MIN TEMP:  63; 6HR MAX TEMP:  80;

EAGLE RIVER    MOSUNNY   78  46  31 NW17G25   29.96S
6HR MIN TEMP:  64; 6HR MAX TEMP:  79;

LAND O LAKES   SUNNY     77  44  30 NW14G23   29.97R
6HR MIN TEMP:  65; 6HR MAX TEMP:  78;

PHILLIPS       MOSUNNY   77  56  46 W14       29.99S
6HR MIN TEMP:  61; 6HR MAX TEMP:  78;

TOMAHAWK       MOSUNNY   78  54  42 NW10G18   29.99F
6HR MIN TEMP:  63; 6HR MAX TEMP:  78;

MEDFORD        MOSUNNY   77  58  51 W16G25    30.01F
6HR MIN TEMP:  61; 6HR MAX TEMP:  78;

MERRILL        NOT AVBL
$$

WIZ029-030-035-036-043>047-301900-
CENTRAL WISCONSIN

CITY           SKY/WX    TMP DP  RH WIND       PRES   REMARKS
WAUSAU         PTSUNNY   83  55  38 W21G30    29.97F HX  82
6HR MIN TEMP:  65; 6HR MAX TEMP:  84;

MOSINEE        MOSUNNY   81  55  41 W16G24    30.01S HX  80
MARSHFIELD     MOSUNNY   83  55  38 W12G22    30.01F HX  82
6HR MIN TEMP:  63; 6HR MAX TEMP:  83;

STEVENS POINT  MOSUNNY   80  56  44 W17       30.00F HX  80
6HR MIN TEMP:  63; 6HR MAX TEMP:  80;

WAUPACA        MOSUNNY   85  55  36 NW17G24   29.98F HX  84
6HR MIN TEMP:  68; 6HR MAX TEMP:  85;

WAUTOMA        MOSUNNY   85  53  33 W21G29    30.01S HX  83
6HR MIN TEMP:  67; 6HR MAX TEMP:  87;

WISC RAPIDS    MOSUNNY   83  53  35 NW14G28   30.02F HX  82
6HR MIN TEMP:  65; 6HR MAX TEMP:  85;

CAMP DOUGLAS   MOSUNNY   82  57  42 W21G29    30.03S HX  82
$$

WIZ011>013-019>022-031-037>040-048>050-301900-
NORTHEAST WISCONSIN

CITY           SKY/WX    TMP DP  RH WIND       PRES   REMARKS
ANTIGO         MOSUNNY   78  54  42 W18G25    29.98S
SHAWANO        MOSUNNY   85  55  35 W13G23    29.95F HX  83
6HR MIN TEMP:  67; 6HR MAX TEMP:  85;

OCONTO         SUNNY     83  56  39 NW9G21    29.92S HX  82
6HR MIN TEMP:  66; 6HR MAX TEMP:  83;

STURGEON BAY   SUNNY     82  55  39 W16       29.94S HX  82
6HR MIN TEMP:  66; 6HR MAX TEMP:  81;

GREEN BAY      MOSUNNY   82  60  47 W15G24    29.95F HX  82
6HR MIN TEMP:  67; 6HR MAX TEMP:  84;

MANITOWOC      SUNNY     82  56  40 MISG      29.96S HX  82
6HR MIN TEMP:  69; 6HR MAX TEMP:  84;

APPLETON       PTSUNNY   82  52  34 W17G29    29.99F HX  81
CLINTONVILLE   PTSUNNY   84  50  30 W21G31    29.96S HX  82
OSHKOSH        MOSUNNY   84  56  38 W15G26    29.98F HX  83
6HR MIN TEMP:  68; 6HR MAX TEMP:  84;

$$

WIZ032>034-041-042-053>061-301900-
SOUTHWEST WISCONSIN

CITY           SKY/WX    TMP DP  RH WIND       PRES   REMARKS
LA CROSSE      SUNNY     86  56  35 W14G24    30.04F HX  85
6HR MIN TEMP:  68; 6HR MAX TEMP:  86;

SPARTA         SUNNY     84  51  31 W13G20    30.05S HX  82
6HR MIN TEMP:  64; 6HR MAX TEMP:  84;

VIROQUA        SUNNY     81  54  39 W12G22    30.09S HX  80
6HR MIN TEMP:  62; 6HR MAX TEMP:  82;

BOSCOBEL       SUNNY     88  55  32 W15G22    30.07S HX  86
6HR MIN TEMP:  63; 6HR MAX TEMP:  88;

PRAIRIE DU CHI SUNNY     87  48  26 W17       30.07S HX  84
6HR MIN TEMP:  65; 6HR MAX TEMP:  87;

PLATTEVILLE    SUNNY     83  58  42 W16G23    30.10S HX  82
6HR MIN TEMP:  62; 6HR MAX TEMP:  83;

$$

WIZ056-057-062-063-064-067-068-301900-
SOUTH CENTRAL WISCONSIN

CITY           SKY/WX    TMP DP  RH WIND       PRES   REMARKS
REEDSBURG      SUNNY     86  55  34 W15G24    30.04F HX  84
6HR MIN TEMP:  65; 6HR MAX TEMP:  86;

BARABOO/DELLS  MOSUNNY   85  47  26 W21       30.04F HX  83
6HR MIN TEMP:  65; 6HR MAX TEMP:  85;

LONE ROCK      SUNNY     86  53  32 W15       30.06S HX  84
6HR MIN TEMP:  65; 6HR MAX TEMP:  86;

MINERAL POINT  SUNNY     82  52  34 W10G18    30.09F HX  81
MADISON        MOSUNNY   84  56  38 NW13G21   30.04F HX  83
6HR MIN TEMP:  67; 6HR MAX TEMP:  84;

MIDDLETON      SUNNY     86  49  27 W17G23    30.06S HX  83
6HR MIN TEMP:  65; 6HR MAX TEMP:  86;

WATERTOWN      SUNNY     83  59  45 W14G20    30.03F HX  83
6HR MIN TEMP:  64; 6HR MAX TEMP:  83;

MONROE         SUNNY     82  54  36 W12G21    30.08F HX  81
JANESVILLE     MOSUNNY   86  54  32 W15G21    30.06S HX  84
$$

WIZ051-052-058>065-066-070>072-301900-
SOUTHEAST WISCONSIN

CITY           SKY/WX    TMP DP  RH WIND       PRES   REMARKS
MILWAUKEE      MOSUNNY   86  51  29 W18G30    30.02F HX  84
6HR MIN TEMP:  69; 6HR MAX TEMP:  86;

WAUKESHA       MOSUNNY   82  54  36 W17G29    30.04F HX  81
MILWAUKEE/TIMM SUNNY     84  48  28 W18G29    30.03S HX  82
RACINE         MOSUNNY   86  52  30 NW16G23   30.04F HX  84
6HR MIN TEMP:  66; 6HR MAX TEMP:  86;

BURLINGTON     SUNNY     83  53  35 W16G22    30.05S HX  82
6HR MIN TEMP:  64; 6HR MAX TEMP:  84;

KENOSHA        MOSUNNY   84  59  42 W15G24    30.04F HX  84
6HR MIN TEMP:  66; 6HR MAX TEMP:  84;

FOND DU LAC    MOSUNNY   85  58  39 W15G23    30.00S HX  84
6HR MIN TEMP:  66; 6HR MAX TEMP:  85;

SHEBOYGAN      MOSUNNY   83  58  42 W20G28    29.99S HX  83
6HR MIN TEMP:  68; 6HR MAX TEMP:  84;

WEST BEND      MOSUNNY   82  52  34 W12G25    30.01F HX  81
JUNEAU         MOSUNNY   81  60  48 W10G20    30.04S HX  81
6HR MIN TEMP:  62; 6HR MAX TEMP:  81;

$$

LSZ147-162-301900-
LAKE SUPERIOR

STATION/POSITION TIME  TEMP    WIND        PRES    WAVE
                       AIR SEA DIR/SP/G            HT/PER
                 (UTC) (F)     (DEG/KT/KT) (MB)    (FT/S)
W MID LAKE BUOY  1750   58 52  240/ 14/ 14 1011.9S   3/ 5
DEVILS ISLAND    1800   67     240/ 18/ 20 1012.7F
PORT WING        1700   75     250/ 10/ 15 1014.2R
SAXON HARBOR     1740   76                 1013.5S
$$

LMZ867-665-643>646-301900-
LAKE MICHIGAN

STATION/POSITION TIME  TEMP    WIND        PRES    WAVE
                       AIR SEA DIR/SP/G            HT/PER
                 (UTC) (F)     (DEG/KT/KT) (MB)    (FT/S)
CHAMBERS ISLAND  1700   78     240/  8/ 13 1012.2S



USA.gov is the U.S. government's official web portal to all federal, state and local government web resources and services.